SPACEBEE-66 (48628 NORAD) Tracking and Keplerian Element Data

This shows tracking and keplerian element data for the satellite.

Feedback or suggestion? Click here.




ElementValue
Catalog48628
NameSPACEBEE-66
Epoch Orbit2911
Epoch Day215.07631843
Epoch Year2021
RAAN272.7669
Inclination97.2539
Eccentricity0.0013978
Argument of Perigee291.8925
Mean Anonmoly68.0821
Mean Motion15.14875465
Decay Rate2.607E-05
L11 48628U 21006EU 21215.07631843 .00002607 00000-0 14323-3 0 9991
L22 48628 97.2539 272.7669 0013978 291.8925 68.0821 15.14875465 29112

Live tracking and technical data element details for SPACEBEE-66 (NORAD 48628). SPACEBEE-66 can be tracked NOW for your location showing map with azimuth and elevation plus other details from your city location.

Track the satellite on the map from your city or location and see movement details for azimuth, elevation, latitude, longitude, range, height, and movement on the map or in text.







IsCatalogInMostPopularTable: catalog: 48628, numindb: 18
Update: records affected: 1



GetName: 48628 SPACEBEE-66

Hit Count: updated at: Wed, 04 Aug 2021 00:26:47 GMT